AQUA

Last updated on Tue Sep 16 2025 00:02:15 GMT+0000 (Coordinated Universal Time)

1 27424U 02022A 25258.59552442 .00000901 00000+0 19156-3 0 9997 2 27424 98.3878 218.1336 0002007 92.4494 18.5397 14.61479603243158
UTC large
Height (km)
Speed (km/s)
/
Latitude / Longitude
Inclination (degrees)
Orbital Period (minutes)
Azimuth
Elevation
Range (km)
Doppler Factor

Next 0 passes for location: London (51.5072 / 0.1276)

Sorry there are no passes over London.